Arica, Peru

8:56 AM -05 on October 18, 2019 (GMT -0500)
Chacalluta International

Weather History for SCAR - September, 2019

Change the Weather History Date:

Friday, September 20, 2019

  Actual Average Record
Temperature  
Mean Temperature 60 °F -  
Max Temperature 63 °F 65 °F 73 °F (1997)
Min Temperature 57 °F 58 °F 53 °F (1996)
Degree Days  
Heating Degree Days 5    
Growing Degree Days 10 (Base 50)    
Moisture  
Dew Point 49 °F    
Average Humidity 64    
Maximum Humidity 72    
Minimum Humidity 49    
Precipitation  
Precipitation 0.00 in 0.00 in - ()
Sea Level Pressure  
Sea Level Pressure 30.03 in    
Wind  
Wind Speed 5 mph ()    
Max Wind Speed 15 mph    
Max Gust Speed -    
Visibility 9.0 miles    
Events      
Averages and records for this station are not official NWS values.
T = Trace of Precipitation, MM = Missing Value Source: Averaged Metar Reports

Daily Weather History Graph

Daily Weather History Graph

Search for Another Location

Airport or City:

Astronomy

Sep. 20, 2019 Rise Set
Actual Time 7:32 AM -03 7:36 PM -03
Civil Twilight 7:11 AM -03 7:58 PM -03
Nautical Twilight 6:45 AM -03 8:24 PM -03
Astronomical Twilight 6:20 AM -03 8:49 PM -03
Moon 12:18 AM -03 (9/20) 11:50 AM -03 (9/20)
Length of Visible Light 12h 47m
Length of Day
12h 04m
Waning Gibbous, 65% of the Moon is Illuminated
Sep 20
Waning Gibbous
Sep 21
Last Quarter
Sep 28
New
Oct 5
First Quarter
Oct 13
Full

Hourly Weather History & Observations

Time (-03) Temp. Dew Point Humidity Pressure Visibility Wind Dir Wind Speed Gust Speed Precip Events Conditions
12:00 AM 59.0 °F 48.2 °F 67% 30.09 in 6.2 mi SE 3.5 mph - N/A   Overcast
1:00 AM 60.8 °F 48.2 °F 63% 30.06 in 6.2 mi SE 3.5 mph - N/A   Overcast
2:00 AM 59.0 °F 48.2 °F 67% 30.06 in 6.2 mi Calm Calm - N/A   Overcast
3:00 AM 60 °F 48 °F 54% 30.07 in 25 mi ESE 2.3 mph - -   Partly Cloudy
3:00 AM 59.0 °F 48.2 °F 67% 30.06 in 6.2 mi ESE 2.3 mph - N/A   Overcast
4:00 AM 59.0 °F 48.2 °F 67% 30.04 in 6.2 mi SE 2.3 mph - N/A   Overcast
5:00 AM 59.0 °F 48.2 °F 67% 30.04 in 6.2 mi South 3.5 mph - N/A   Overcast
6:00 AM 59 °F 49 °F 60% 30.04 in 12 mi SSE 2.3 mph - -   Partly Cloudy
6:00 AM 59.0 °F 48.2 °F 67% 30.04 in 6.2 mi SSE 2.3 mph - N/A   Overcast
7:00 AM 59.0 °F 48.2 °F 67% 30.04 in 6.2 mi SSE 3.5 mph - N/A   Overcast
8:00 AM 59.0 °F 48.2 °F 67% 30.04 in 6.2 mi ESE 5.8 mph - N/A   Overcast
9:00 AM 59 °F 48 °F 58% 30.07 in 19 mi ESE 4.6 mph - -   Partly Cloudy
9:00 AM 59.0 °F 48.2 °F 67% 30.06 in 6.2 mi ESE 4.6 mph - N/A   Overcast
10:00 AM 60.8 °F 48.2 °F 63% 30.06 in 6.2 mi North 2.3 mph - N/A   Mostly Cloudy
11:00 AM 60.8 °F 48.2 °F 63% 30.06 in 6.2 mi SSW 5.8 mph - N/A   Mostly Cloudy
12:00 PM 62 °F 48 °F 51% 30.05 in 25 mi SW 10.4 mph - -   Partly Cloudy
12:00 PM 62.6 °F 48.2 °F 59% 30.04 in - SW 10.4 mph - N/A   Clear
1:00 PM 60.8 °F 48.2 °F 63% 30.04 in - SW 12.7 mph - N/A   Clear
2:00 PM 62.6 °F 50.0 °F 63% 30.01 in - SSW 12.7 mph - N/A   Clear
3:00 PM 62 °F 48 °F 49% 29.98 in 19 mi SSW 15.0 mph - -   Partly Cloudy
3:00 PM 62.6 °F 48.2 °F 59% 29.98 in - SSW 15.0 mph - N/A   Clear
4:00 PM 62.6 °F 48.2 °F 59% 29.95 in - SSW 13.8 mph - N/A   Clear
5:00 PM 62.6 °F 50.0 °F 63% 29.95 in - SSW 12.7 mph - N/A   Clear
6:00 PM 60 °F 49 °F 59% 29.97 in 19 mi SSW 11.5 mph - -   Partly Cloudy
6:00 PM 60.8 °F 50.0 °F 68% 29.95 in - SSW 11.5 mph - N/A   Clear
7:00 PM 59.0 °F 50.0 °F 72% 29.98 in - SW 9.2 mph - N/A   Clear
8:00 PM 59.0 °F 50.0 °F 72% 30.01 in - SW 4.6 mph - N/A   Clear
9:00 PM 59 °F 50 °F 63% 30.04 in 19 mi WSW 3.5 mph - -   Partly Cloudy
9:00 PM 59.0 °F 50.0 °F 72% 30.04 in 6.2 mi WSW 3.5 mph - N/A   Scattered Clouds
10:00 PM 59.0 °F 50.0 °F 72% 30.04 in 6.2 mi SW 2.3 mph - N/A   Mostly Cloudy
11:00 PM 59.0 °F 50.0 °F 72% 30.04 in 6.2 mi South 4.6 mph - N/A   Mostly Cloudy